Regional Weather Roundup
Issued by NWS Midland/Odessa, TX

Home | Current Version | Previous Version | Text Only | Print | Product List | Glossary On
Versions: 1 2 3 4 5 6 7 8 9 10 11 12 13 14 15 16 17 18 19 20 21 22 23 24 25 26 27 28 29 30 31 32 33 34 35 36 37 38 39 40 41 42 43 44 45 46 47 48 49 50
737
ASUS44 KMAF 031510
RWRMAF
MIDLAND AREA WEATHER ROUNDUP
NATIONAL WEATHER SERVICE MIDLAND TX
900 AM CST SAT DEC 03 2016

...IN SOUTHWEST TEXAS AND SOUTHEAST NEW MEXICO...

CITY           SKY/WX    TMP DP  RH WIND       PRES   REMARKS
ALPINE         CLOUDY    39  38  99 E12       30.06S VSB 1/2 WCI  31
ANDREWS        CLOUDY    40  40 100 E14G21    30.06R WCI  32
ARTESIA        LGT RAIN  34  34 100 N16       30.12S WCI  23
BIG SPRING     CLOUDY    42  41  96 NE15G23   30.08R WCI  35
CARLSBAD       LGT RAIN  36  36 100 NW18      30.10R FOG     WCI  26
DRYDEN           N/A     50  45  83 N16G26    29.95R
FORT STOCKTON  CLOUDY    43  43 100 NW12      30.02S FOG     WCI  37
GUAD PASS      CLOUDY    34  34 100 NE44      29.95S WCI  18
HOBBS          LGT RAIN  39  39 100 N10       30.08R WCI  32
MARFA          CLOUDY    39  38  96 NE17      29.98R WCI  30
MIDLAND AIRPK  CLOUDY    43  43 100 NE12      30.07S FOG     WCI  37
MIDLAND INTL   CLOUDY    43  41  93 NE16      30.04S FOG     WCI  35
ODESSA         CLOUDY    43  40  89 E16       30.05R FOG     WCI  35
PECOS          DRIZZLE   40  40  97 NW15      30.07R WCI  32
PRESIDIO       CLOUDY    55  48  78 N10       29.90S
SEMINOLE       CLOUDY    40  40  99 NE10      30.08S WCI  34
SNYDER         LGT RAIN  41  40  97 NE13G21   30.08R WCI  33
WINK           CLOUDY    44  42  93 NE10      30.06R WCI  39
$$
...OTHER STATIONS IN TEXAS...

CITY           SKY/WX    TMP DP  RH WIND       PRES   REMARKS
ABILENE        LGT RAIN  44  44 100 NE10      30.07S WCI  39
AMARILLO       FOG       34  34 100 N6        30.14S VSB 1/4 WCI  29
AUSTIN         LGT RAIN  51  49  92 N13       29.99R
BROWNSVILLE    CLOUDY    80  73  79 S18G24    29.84R
CORPUS CHRISTI PTSUNNY   62  58  86 N15       29.90R
DALLAS FTW     LGT RAIN  49  45  86 E15       30.08F
DEL RIO        CLOUDY    58  56  93 N5        29.93R
EL PASO        CLOUDY    40  35  83 N18       29.97R WCI  31
HOUSTON INT    CLOUDY    54  52  93 N10       29.95R
LUBBOCK        LGT RAIN  40  38  93 E9        30.09R WCI  34
SAN ANGELO     LGT RAIN  46  45  96 NE9       30.04S
SAN ANTONIO    LGT RAIN  50  48  93 N10       29.98R
WACO           CLOUDY    49  48  97 NE10      30.04F
WICHITA FALLS  NOT AVBL
$$
...OTHER LOCATIONS IN NEW MEXICO...

CITY           SKY/WX    TMP DP  RH WIND       PRES   REMARKS
ALAMAGORDO     NOT AVBL
ALBUQUERQUE    FLURRIES  32  31  96 N5        30.11R WCI  27
CANNON AFB     DRIZZLE   32  32 100 NE12      30.12R WCI  23
CLOVIS         CLOUDY    32  28  86 N14G20    30.11R WCI  22
HOLLOMAN AFB   CLOUDY    39  30  69 NW7       30.04R WCI  34
ROSWELL        CLOUDY    35  32  88 N10       30.13R WCI  27
RUIDOSO        LGT SNOW  25  25 100 S3        30.08S VSB 3/4
SANTA FE       CLOUDY    24  21  88 N7        30.08R WCI  16
TRUTH OR CONSE CLOUDY    38  26  62 NE20G26   30.03R WCI  28
TUCUMCARI      CLOUDY    33  30  88 NE6       30.13R WCI  28
$$




USA.gov is the U.S. government's official web portal to all federal, state and local government web resources and services.